Location: Finkenbach
(49.5340°N, 8.9188°E)
Time: 04:25:51
(UTC+00:00)

CZ-4C R/B - Pass Details

Date: 17 June 2025
Orbit: 425 x 535 km, 98.0° (Epoch: 12 July)

Event Time Altitude Azimuth Distance (km) Brightness Sun altitude
Rises 21:29:06 0° 24° (NNE) 2,402 7.2 -12.6°
Reaches altitude 10° 21:31:19 10° 37° (NE) 1,528 5.9 -12.8°
Maximum altitude 21:34:08 27° 97° (E) 865 4.0 -13.0°
Enters shadow 21:35:14 22° 131° (SE) 994 4.1 -13.1°
